EST,Max TemperatureF,Mean TemperatureF,Min TemperatureF,Max Dew PointF,MeanDew PointF,Min DewpointF,Max Humidity, Mean Humidity, Min Humidity, Max Sea Level PressureIn, Mean Sea Level PressureIn, Min Sea Level PressureIn, Max VisibilityMiles, Mean VisibilityMiles, Min VisibilityMiles, Max Wind SpeedMPH, Mean Wind SpeedMPH, Max Gust SpeedMPH,PrecipitationIn, CloudCover, Events, WindDirDegrees
2013-2-1,46,36,24,27,14,1,71,40,18,30.39,30.20,29.99,10,10,10,22,13,31,0.00,0,,293
2013-2-2,48,34,19,36,17,9,85,51,23,30.43,30.29,30.07,10,10,10,20,5,28,0.00,2,,203
2013-2-3,55,44,32,36,29,23,100,63,34,30.05,29.97,29.88,10,10,9,15,7,25,0.00,2,,285
2013-2-4,50,38,25,31,26,22,89,65,35,30.17,30.09,30.04,10,10,10,8,1,,0.00,0,,194
2013-2-5,66,50,35,43,36,32,89,62,30,30.04,29.98,29.90,10,10,8,16,7,24,0.00,1,,240
2013-2-6,66,49,32,45,35,27,100,79,25,30.25,30.10,30.00,10,5,0,10,2,,0.00,2,Fog,293
2013-2-7,52,46,39,46,41,29,100,84,53,30.28,30.12,29.85,10,7,4,21,11,32,0.50,4,Rain,62
2013-2-8,59,50,42,46,42,29,100,80,52,30.09,29.88,29.78,10,9,2,22,14,29,0.62,5,Rain,333
2013-2-9,59,46,30,28,22,14,89,49,17,30.37,30.25,30.11,10,10,9,14,6,20,0.00,0,,338
2013-2-10,57,42,27,47,32,22,93,66,32,30.49,30.37,30.23,10,10,8,14,3,,0.03,3,Rain,128
2013-2-11,64,57,50,61,58,49,100,92,83,30.20,30.07,29.96,10,9,3,20,11,30,0.36,7,Rain,222
2013-2-12,64,57,48,53,43,27,100,69,25,30.12,30.01,29.96,10,10,6,9,5,,0.15,2,Rain,295
2013-2-13,52,49,46,50,47,44,100,94,86,29.92,29.76,29.66,10,6,1,15,6,25,0.05,7,Rain,142
2013-2-14,50,42,35,40,34,31,93,74,48,30.09,30.02,29.88,10,10,9,8,4,,0.00,0,,356
2013-2-15,62,45,28,40,34,28,96,70,31,30.12,30.04,29.94,10,9,3,9,2,,0.01,0,,190
2013-2-16,42,37,32,37,32,29,100,90,66,29.97,29.90,29.83,10,6,0,18,7,25,0.31,7,Fog-Rain-Snow,338
2013-2-17,41,33,25,25,17,10,81,58,28,30.29,30.14,29.99,10,10,10,18,8,28,0.01,0,,292
2013-2-18,53,36,19,27,21,15,89,60,26,30.44,30.36,30.30,10,10,10,12,3,17,0.00,0,,173
2013-2-19,53,42,32,52,43,28,100,90,74,30.27,30.03,29.92,10,7,0,17,7,28,0.16,5,Fog-Rain,222
2013-2-20,55,40,26,37,28,12,100,77,21,30.14,30.07,30.00,10,6,0,9,4,,0.00,0,Fog,276
2013-2-21,55,42,28,34,22,16,75,48,24,30.25,30.18,30.12,10,10,10,8,4,,0.00,0,,73
2013-2-22,46,42,37,37,33,24,100,82,42,30.30,30.21,30.13,10,6,2,13,8,20,0.10,8,Rain,52
2013-2-23,45,41,37,45,41,37,100,97,93,30.09,29.95,29.84,10,4,0,10,5,,0.66,8,Fog-Rain,18
2013-2-24,64,52,39,46,42,33,100,82,31,30.03,29.91,29.84,10,6,0,13,5,18,0.01,4,Fog-Rain,294
2013-2-25,44,40,37,32,26,23,68,56,47,30.20,30.12,30.04,10,10,10,16,10,24,0.00,2,,60
2013-2-26,64,50,37,63,47,28,100,92,63,30.08,29.76,29.54,10,6,0,18,11,23,0.75,6,Fog-Rain,97
2013-2-27,60,50,41,46,40,37,100,76,44,29.85,29.76,29.68,10,9,4,15,9,21,0.00,1,,246
2013-2-28,51,43,35,38,32,26,96,65,38,29.88,29.80,29.75,10,10,2,14,6,22,0.00,3,,281